Location: Unspecified
(0.0000°N, 0.0000°E)
Time: 10:17:18
(UTC+00:00)

ARIANE 2 DEB - Pass Details

Date: 14 March 2026
Orbit: 598 x 35366 km, 8.4° (Epoch: 18 September)

Event Time Altitude Azimuth Distance (km) Brightness Sun altitude
Rises 18:05:25 0° 261° (W) 12,262 ? 0.9°
Reaches altitude 10° 18:19:41 10° 258° (WSW) 7,095 ? -2.6°
Maximum altitude 18:33:58 60° 180° (S) 1,210 ? -6.2°
Drops below altitude 10° 18:37:58 10° 98° (E) 2,115 ? -7.2°
Enters shadow 18:38:12 - 97° (E) 2,220 ? -7.3°
